Time,TemperatureF,DewpointF,PressureIn,WindDirection,WindDirectionDegrees,WindSpeedMPH,WindSpeedGustMPH,Humidity,HourlyPrecipIn,Conditions,Clouds,dailyrainin,SoftwareType,DateUTC
2013-05-24 00:02:00,38.9,31.6,29.94,SW,230,6.0,6.0,75,0.00,CLR,,0.00,WeatherDisplay:10.37,2013-05-24 07:02:00,
2013-05-24 00:07:00,39.1,31.8,29.94,WSW,238,6.9,6.9,75,0.00,CLR,,0.00,WeatherDisplay:10.37,2013-05-24 07:07:00,
2013-05-24 00:12:00,39.2,31.9,29.94,WSW,238,5.0,5.0,75,0.00,CLR,,0.00,WeatherDisplay:10.37,2013-05-24 07:12:00,
2013-05-24 00:17:00,39.5,31.6,29.93,WSW,238,3.5,3.5,73,0.00,CLR,,0.00,WeatherDisplay:10.37,2013-05-24 07:17:00,
2013-05-24 00:22:00,40.1,31.4,29.92,WSW,238,4.0,4.0,71,0.00,CLR,,0.00,WeatherDisplay:10.37,2013-05-24 07:22:00,
2013-05-24 00:27:00,40.8,31.8,29.93,WSW,246,5.0,5.0,70,0.00,CLR,,0.00,WeatherDisplay:10.37,2013-05-24 07:27:00,
2013-05-24 00:32:00,40.3,31.3,29.93,West,266,5.8,5.8,70,0.00,CLR,,0.00,WeatherDisplay:10.37,2013-05-24 07:32:00,
2013-05-24 00:37:00,40.2,31.2,29.93,West,266,4.0,4.0,70,0.00,CLR,,0.00,WeatherDisplay:10.37,2013-05-24 07:37:00,
2013-05-24 00:42:00,40.2,31.2,29.93,West,266,4.0,4.0,70,0.00,CLR,,0.00,WeatherDisplay:10.37,2013-05-24 07:42:00,
2013-05-24 00:47:00,40.0,31.0,29.93,West,267,5.8,5.8,70,0.00,CLR,,0.00,WeatherDisplay:10.37,2013-05-24 07:47:00,
2013-05-24 00:52:00,40.0,31.0,29.93,West,269,3.5,3.5,70,0.00,CLR,,0.00,WeatherDisplay:10.37,2013-05-24 07:52:00,
2013-05-24 00:57:00,40.1,31.1,29.93,West,269,2.3,2.3,70,0.00,CLR,,0.00,WeatherDisplay:10.37,2013-05-24 07:57:00,
2013-05-24 01:02:00,40.1,30.7,29.92,West,269,0.0,0.0,69,0.00,CLR,,0.00,WeatherDisplay:10.37,2013-05-24 08:02:00,
2013-05-24 01:07:00,40.3,30.9,29.92,West,268,0.0,0.0,69,0.00,CLR,,0.00,WeatherDisplay:10.37,2013-05-24 08:07:00,
2013-05-24 01:12:00,40.6,30.9,29.92,West,269,0.0,0.0,68,0.00,CLR,,0.00,WeatherDisplay:10.37,2013-05-24 08:12:00,
2013-05-24 01:17:00,40.7,31.0,29.92,West,269,2.0,2.0,68,0.00,CLR,,0.00,WeatherDisplay:10.37,2013-05-24 08:17:00,
2013-05-24 01:22:00,39.6,30.3,29.92,West,269,0.0,0.0,69,0.00,CLR,,0.00,WeatherDisplay:10.37,2013-05-24 08:22:00,
2013-05-24 01:27:00,38.9,30.3,29.93,West,269,0.0,0.0,71,0.00,CLR,,0.00,WeatherDisplay:10.37,2013-05-24 08:27:00,
2013-05-24 01:32:00,38.0,29.8,29.93,West,269,2.3,0.0,72,0.00,CLR,,0.00,WeatherDisplay:10.37,2013-05-24 08:32:00,
2013-05-24 01:37:00,36.7,29.5,29.93,West,268,3.5,3.5,75,0.00,CLR,,0.00,WeatherDisplay:10.37,2013-05-24 08:37:00,
2013-05-24 01:42:00,34.8,29.0,29.94,West,269,3.5,3.5,79,0.00,CLR,,0.00,WeatherDisplay:10.37,2013-05-24 08:42:00,
2013-05-24 01:47:00,33.9,29.0,29.94,West,269,3.5,3.5,82,0.00,CLR,,0.00,WeatherDisplay:10.37,2013-05-24 08:47:00,
2013-05-24 01:52:00,34.2,29.6,29.94,West,268,3.5,3.5,83,0.00,CLR,,0.00,WeatherDisplay:10.37,2013-05-24 08:52:00,
2013-05-24 01:57:00,36.1,30.5,29.94,West,269,3.5,3.5,80,0.00,CLR,,0.00,WeatherDisplay:10.37,2013-05-24 08:57:00,
2013-05-24 02:02:00,37.5,30.6,29.93,West,269,2.3,2.3,76,0.00,CLR,,0.00,WeatherDisplay:10.37,2013-05-24 09:02:00,
2013-05-24 02:07:00,38.1,30.5,29.92,West,268,2.3,2.3,74,0.00,CLR,,0.00,WeatherDisplay:10.37,2013-05-24 09:07:00,
2013-05-24 02:12:00,38.7,30.8,29.92,West,269,0.0,0.0,73,0.00,CLR,,0.00,WeatherDisplay:10.37,2013-05-24 09:12:00,
2013-05-24 02:17:00,38.3,30.1,29.92,West,268,2.3,2.3,72,0.00,CLR,,0.00,WeatherDisplay:10.37,2013-05-24 09:17:00,
2013-05-24 02:23:00,36.5,29.7,29.92,West,269,2.3,2.3,76,0.00,CLR,,0.00,WeatherDisplay:10.37,2013-05-24 09:23:00,
2013-05-24 02:28:00,35.4,29.2,29.93,West,269,3.5,3.5,78,0.00,CLR,,0.00,WeatherDisplay:10.37,2013-05-24 09:28:00,
2013-05-24 02:33:00,34.4,28.9,29.93,West,269,2.3,2.3,80,0.00,CLR,,0.00,WeatherDisplay:10.37,2013-05-24 09:33:00,
2013-05-24 02:38:00,34.4,29.5,29.93,West,268,0.0,0.0,82,0.00,CLR,,0.00,WeatherDisplay:10.37,2013-05-24 09:38:00,
2013-05-24 02:43:00,34.8,29.3,29.93,West,269,3.0,3.0,80,0.00,CLR,,0.00,WeatherDisplay:10.37,2013-05-24 09:43:00,
2013-05-24 02:48:00,34.4,28.9,29.93,West,269,3.5,3.5,80,0.00,CLR,,0.00,WeatherDisplay:10.37,2013-05-24 09:48:00,
2013-05-24 02:53:00,33.8,28.9,29.93,West,268,2.3,2.3,82,0.00,CLR,,0.00,WeatherDisplay:10.37,2013-05-24 09:53:00,
2013-05-24 02:58:00,33.3,28.7,29.93,West,269,2.3,2.3,83,0.00,CLR,,0.00,WeatherDisplay:10.37,2013-05-24 09:58:00,
2013-05-24 03:03:00,33.1,28.8,29.93,West,268,2.3,2.3,84,0.00,CLR,,0.00,WeatherDisplay:10.37,2013-05-24 10:03:00,
2013-05-24 03:08:00,33.3,29.3,29.93,West,269,3.5,3.5,85,0.00,CLR,,0.00,WeatherDisplay:10.37,2013-05-24 10:08:00,
2013-05-24 03:13:00,33.7,29.4,29.92,West,269,3.5,3.5,84,0.00,CLR,,0.00,WeatherDisplay:10.37,2013-05-24 10:13:00,
2013-05-24 03:18:00,33.9,29.6,29.92,West,268,3.5,3.5,84,0.00,CLR,,0.00,WeatherDisplay:10.37,2013-05-24 10:18:00,
2013-05-24 03:23:00,33.9,29.3,29.92,West,269,0.0,0.0,83,0.00,CLR,,0.00,WeatherDisplay:10.37,2013-05-24 10:23:00,
2013-05-24 03:28:00,33.8,29.2,29.92,West,269,0.0,0.0,83,0.00,CLR,,0.00,WeatherDisplay:10.37,2013-05-24 10:28:00,
2013-05-24 03:33:00,33.9,29.3,29.92,West,268,0.0,0.0,83,0.00,CLR,,0.00,WeatherDisplay:10.37,2013-05-24 10:33:00,
2013-05-24 03:38:00,33.9,29.3,29.92,West,269,0.0,0.0,83,0.00,CLR,,0.00,WeatherDisplay:10.37,2013-05-24 10:38:00,
2013-05-24 03:43:00,33.8,29.2,29.92,West,269,0.0,0.0,83,0.00,CLR,,0.00,WeatherDisplay:10.37,2013-05-24 10:43:00,
2013-05-24 03:48:00,33.8,29.2,29.92,West,269,2.3,2.3,83,0.00,CLR,,0.00,WeatherDisplay:10.37,2013-05-24 10:48:00,
2013-05-24 03:53:00,34.0,29.4,29.92,West,268,2.3,2.3,83,0.00,CLR,,0.00,WeatherDisplay:10.37,2013-05-24 10:53:00,
2013-05-24 03:58:00,34.0,29.4,29.92,West,269,2.3,2.3,83,0.00,CLR,,0.00,WeatherDisplay:10.37,2013-05-24 10:58:00,
2013-05-24 04:03:00,34.1,29.5,29.92,West,269,2.3,2.3,83,0.00,CLR,,0.00,WeatherDisplay:10.37,2013-05-24 11:03:00,
2013-05-24 04:08:00,34.2,29.3,29.92,West,269,3.5,3.5,82,0.00,CLR,,0.00,WeatherDisplay:10.37,2013-05-24 11:08:00,
2013-05-24 04:13:00,33.9,29.0,29.92,West,268,3.5,3.5,82,0.00,CLR,,0.00,WeatherDisplay:10.37,2013-05-24 11:13:00,
2013-05-24 04:18:00,33.7,29.1,29.92,West,267,3.5,3.5,83,0.00,CLR,,0.00,WeatherDisplay:10.37,2013-05-24 11:18:00,
2013-05-24 04:23:00,33.9,31.0,29.92,West,267,3.5,3.5,89,0.00,CLR,,0.00,WeatherDisplay:10.37,2013-05-24 11:23:00,
2013-05-24 04:28:00,34.2,29.3,29.92,West,267,2.3,2.3,82,0.00,CLR,,0.00,WeatherDisplay:10.37,2013-05-24 11:28:00,
2013-05-24 04:33:00,34.6,29.7,29.92,West,267,3.5,3.5,82,0.00,CLR,,0.00,WeatherDisplay:10.37,2013-05-24 11:33:00,
2013-05-24 04:38:00,35.0,29.8,29.92,West,267,2.3,2.3,81,0.00,CLR,,0.00,WeatherDisplay:10.37,2013-05-24 11:38:00,
2013-05-24 04:43:00,35.2,29.6,29.92,West,267,3.5,3.5,80,0.00,CLR,,0.00,WeatherDisplay:10.37,2013-05-24 11:43:00,
2013-05-24 04:48:00,35.0,29.5,29.92,West,267,2.3,2.3,80,0.00,CLR,,0.00,WeatherDisplay:10.37,2013-05-24 11:48:00,
2013-05-24 04:53:00,34.7,29.5,29.92,West,267,0.0,0.0,81,0.00,CLR,,0.00,WeatherDisplay:10.37,2013-05-24 11:53:00,
2013-05-24 04:58:00,34.7,29.5,29.92,West,267,2.3,2.3,81,0.00,CLR,,0.00,WeatherDisplay:10.37,2013-05-24 11:58:00,
2013-05-24 05:03:00,34.4,29.2,29.93,West,267,3.5,3.5,81,0.00,CLR,,0.00,WeatherDisplay:10.37,2013-05-24 12:03:00,
2013-05-24 05:08:00,34.4,29.5,29.93,West,267,3.5,3.5,82,0.00,CLR,,0.00,WeatherDisplay:10.37,2013-05-24 12:08:00,
2013-05-24 05:13:00,34.3,29.4,29.93,West,267,2.3,2.3,82,0.00,CLR,,0.00,WeatherDisplay:10.37,2013-05-24 12:13:00,
2013-05-24 05:18:00,34.5,29.6,29.93,West,267,3.5,3.5,82,0.00,CLR,,0.00,WeatherDisplay:10.37,2013-05-24 12:18:00,
2013-05-24 05:23:00,35.2,30.0,29.93,West,267,3.5,3.5,81,0.00,CLR,,0.00,WeatherDisplay:10.37,2013-05-24 12:23:00,
2013-05-24 05:28:00,35.4,29.8,29.93,West,267,2.3,2.3,80,0.00,CLR,,0.00,WeatherDisplay:10.37,2013-05-24 12:28:00,
2013-05-24 05:33:00,35.2,29.6,29.93,West,267,2.3,2.3,80,0.00,CLR,,0.00,WeatherDisplay:10.37,2013-05-24 12:33:00,
2013-05-24 05:38:00,35.1,29.9,29.93,West,267,1.1,1.1,81,0.00,CLR,,0.00,WeatherDisplay:10.37,2013-05-24 12:38:00,
2013-05-24 05:43:00,35.5,30.2,29.93,West,267,2.3,2.3,81,0.00,CLR,,0.00,WeatherDisplay:10.37,2013-05-24 12:43:00,
2013-05-24 05:48:00,35.4,30.1,29.94,West,267,2.0,2.0,81,0.00,CLR,,0.00,WeatherDisplay:10.37,2013-05-24 12:48:00,
2013-05-24 05:53:00,35.1,30.8,29.94,West,267,2.3,2.3,84,0.00,CLR,,0.00,WeatherDisplay:10.37,2013-05-24 12:53:00,
2013-05-24 05:58:00,35.3,30.9,29.94,West,267,3.5,3.5,84,0.00,CLR,,0.00,WeatherDisplay:10.37,2013-05-24 12:58:00,
2013-05-24 06:03:00,35.6,31.2,29.96,West,267,3.5,3.5,84,0.00,BKN,,0.00,WeatherDisplay:10.37,2013-05-24 13:03:00,
2013-05-24 06:08:00,35.9,31.5,29.96,West,267,2.3,2.3,84,0.00,BKN,,0.00,WeatherDisplay:10.37,2013-05-24 13:08:00,
2013-05-24 06:13:00,36.3,31.9,29.96,West,267,3.5,3.5,84,0.00,BKN,,0.00,WeatherDisplay:10.37,2013-05-24 13:13:00,
2013-05-24 06:18:00,36.9,32.2,29.96,West,267,3.5,3.5,83,0.00,BKN,,0.00,WeatherDisplay:10.37,2013-05-24 13:18:00,
2013-05-24 06:23:00,37.4,32.1,29.96,West,267,3.5,3.5,81,0.00,BKN,,0.00,WeatherDisplay:10.37,2013-05-24 13:23:00,
2013-05-24 06:28:00,37.9,32.9,29.96,West,267,0.0,0.0,82,0.00,BKN,,0.00,WeatherDisplay:10.37,2013-05-24 13:28:00,
2013-05-24 06:33:00,38.3,33.3,29.96,West,267,0.0,0.0,82,0.00,BKN,,0.00,WeatherDisplay:10.37,2013-05-24 13:33:00,
2013-05-24 06:38:00,38.9,33.6,29.95,West,267,0.0,0.0,81,0.00,BKN,,0.00,WeatherDisplay:10.37,2013-05-24 13:38:00,
2013-05-24 06:43:00,39.5,34.5,29.95,West,267,3.5,3.5,82,0.00,BKN,,0.00,WeatherDisplay:10.37,2013-05-24 13:43:00,
2013-05-24 06:48:00,39.8,34.4,29.95,West,267,6.9,6.9,81,0.00,BKN,,0.00,WeatherDisplay:10.37,2013-05-24 13:48:00,
2013-05-24 06:53:00,40.0,34.9,29.96,West,267,1.1,1.1,82,0.00,BKN,,0.00,WeatherDisplay:10.37,2013-05-24 13:53:00,
2013-05-24 06:58:00,40.3,35.5,29.95,West,267,3.5,3.5,83,0.00,BKN,,0.00,WeatherDisplay:10.37,2013-05-24 13:58:00,
2013-05-24 07:03:00,40.8,35.4,29.96,West,267,1.1,1.1,81,0.00,BKN,,0.00,WeatherDisplay:10.37,2013-05-24 14:03:00,
2013-05-24 07:08:00,41.2,35.5,29.96,West,267,10.4,10.4,80,0.00,BKN,,0.00,WeatherDisplay:10.37,2013-05-24 14:08:00,
2013-05-24 07:13:00,40.7,35.0,29.97,West,264,10.4,10.4,80,0.00,BKN,,0.00,WeatherDisplay:10.37,2013-05-24 14:13:00,
2013-05-24 07:18:00,40.4,34.7,29.97,West,273,10.0,10.0,80,0.00,BKN,,0.00,WeatherDisplay:10.37,2013-05-24 14:18:00,
2013-05-24 07:23:00,40.2,34.8,29.97,West,275,6.9,6.9,81,0.00,BKN,,0.00,WeatherDisplay:10.37,2013-05-24 14:23:00,
2013-05-24 07:28:00,40.3,35.2,29.97,West,275,8.1,8.1,82,0.00,BKN,,0.00,WeatherDisplay:10.37,2013-05-24 14:28:00,
2013-05-24 07:34:00,40.6,35.5,29.97,West,275,5.8,5.8,82,0.00,BKN,,0.00,WeatherDisplay:10.37,2013-05-24 14:34:00,
2013-05-24 07:39:00,41.3,36.5,29.97,West,275,5.8,5.8,83,0.00,BKN,,0.00,WeatherDisplay:10.37,2013-05-24 14:39:00,
2013-05-24 07:44:00,42.1,36.4,29.95,West,280,9.2,9.2,80,0.00,BKN,,0.00,WeatherDisplay:10.37,2013-05-24 14:44:00,
2013-05-24 07:49:00,42.4,36.7,29.96,West,279,4.6,4.6,80,0.00,BKN,,0.00,WeatherDisplay:10.37,2013-05-24 14:49:00,
2013-05-24 07:54:00,42.6,36.5,29.95,West,280,3.5,3.9,79,0.00,BKN,,0.00,WeatherDisplay:10.37,2013-05-24 14:54:00,
2013-05-24 07:59:00,42.9,36.5,29.96,WNW,284,3.5,3.5,78,0.00,BKN,,0.00,WeatherDisplay:10.37,2013-05-24 14:59:00,
2013-05-24 08:04:00,43.1,36.0,29.97,NW,321,3.5,3.5,76,0.00,-RA,,0.00,WeatherDisplay:10.37,2013-05-24 15:04:00,
2013-05-24 08:09:00,43.3,36.6,29.97,NW,321,3.5,3.5,77,0.00,-RA,,0.00,WeatherDisplay:10.37,2013-05-24 15:09:00,
2013-05-24 08:14:00,43.5,36.8,29.97,WNW,291,3.5,3.5,77,0.00,-RA,,0.00,WeatherDisplay:10.37,2013-05-24 15:14:00,
2013-05-24 08:19:00,43.7,37.0,29.97,WNW,292,3.5,3.5,77,0.00,-RA,,0.00,WeatherDisplay:10.37,2013-05-24 15:19:00,
2013-05-24 08:24:00,43.6,36.2,29.97,WNW,292,3.5,3.5,75,0.00,-RA,,0.00,WeatherDisplay:10.37,2013-05-24 15:24:00,
2013-05-24 08:29:00,43.1,36.0,29.98,WNW,284,12.7,12.7,76,0.00,-RA,,0.00,WeatherDisplay:10.37,2013-05-24 15:29:00,
2013-05-24 08:34:00,42.2,35.8,29.99,West,277,11.5,11.5,78,0.00,-RA,,0.00,WeatherDisplay:10.37,2013-05-24 15:34:00,
2013-05-24 08:39:00,41.3,35.9,29.99,West,280,12.7,12.7,81,0.00,-RA,,0.00,WeatherDisplay:10.37,2013-05-24 15:39:00,
2013-05-24 08:44:00,40.5,35.7,29.99,WNW,285,12.7,12.7,83,0.00,-RA,,0.00,WeatherDisplay:10.37,2013-05-24 15:44:00,
2013-05-24 08:49:00,40.0,35.9,30.00,WNW,284,11.5,11.5,85,0.00,-RA,,0.00,WeatherDisplay:10.37,2013-05-24 15:49:00,
2013-05-24 08:54:00,39.6,35.5,30.00,West,267,16.1,16.1,85,0.00,-RA,,0.00,WeatherDisplay:10.37,2013-05-24 15:54:00,
2013-05-24 08:59:00,39.5,36.0,30.01,West,273,12.7,12.7,87,0.01,-RA,,0.01,WeatherDisplay:10.37,2013-05-24 15:59:00,
2013-05-24 09:04:00,39.5,36.0,30.01,West,273,11.5,11.5,87,0.01,-RA,,0.01,WeatherDisplay:10.37,2013-05-24 16:04:00,
2013-05-24 09:09:00,39.4,35.9,30.01,West,272,11.5,11.5,87,0.01,-RA,,0.01,WeatherDisplay:10.37,2013-05-24 16:09:00,
2013-05-24 09:14:00,39.6,36.0,30.01,West,280,5.8,5.8,87,0.01,-RA,,0.01,WeatherDisplay:10.37,2013-05-24 16:14:00,
2013-05-24 09:19:00,39.8,36.5,30.00,West,259,6.9,6.9,88,0.01,-RA,,0.01,WeatherDisplay:10.37,2013-05-24 16:19:00,
2013-05-24 09:24:00,39.8,36.2,30.00,WSW,254,4.0,4.0,87,0.01,-RA,,0.01,WeatherDisplay:10.37,2013-05-24 16:24:00,
2013-05-24 09:29:00,40.0,36.7,30.00,WSW,252,1.1,1.1,88,0.01,-RA,,0.01,WeatherDisplay:10.37,2013-05-24 16:29:00,
2013-05-24 09:34:00,40.1,36.5,30.00,WSW,252,1.1,0.0,87,0.01,-RA,,0.01,WeatherDisplay:10.37,2013-05-24 16:34:00,
2013-05-24 09:39:00,40.1,36.5,30.00,WSW,252,3.5,3.5,87,0.01,-RA,,0.01,WeatherDisplay:10.37,2013-05-24 16:39:00,
2013-05-24 09:45:00,40.2,36.3,30.00,WSW,252,5.0,5.0,86,0.01,-RA,,0.01,WeatherDisplay:10.37,2013-05-24 16:45:00,
2013-05-24 09:50:00,40.5,36.6,30.00,WSW,252,3.5,3.5,86,0.01,-RA,,0.01,WeatherDisplay:10.37,2013-05-24 16:50:00,
2013-05-24 09:55:00,40.8,36.9,29.99,WSW,250,3.5,3.5,86,0.01,-RA,,0.01,WeatherDisplay:10.37,2013-05-24 16:55:00,
2013-05-24 10:00:00,41.2,37.3,30.00,WSW,243,3.5,3.5,86,0.00,-RA,,0.01,WeatherDisplay:10.37,2013-05-24 17:00:00,
2013-05-24 10:05:00,41.9,37.7,29.99,SW,215,7.0,7.0,85,0.00,SCT,,0.01,WeatherDisplay:10.37,2013-05-24 17:05:00,
2013-05-24 10:10:00,42.4,37.6,29.99,WSW,238,5.8,5.8,83,0.00,SCT,,0.01,WeatherDisplay:10.37,2013-05-24 17:10:00,
2013-05-24 10:15:00,42.7,37.6,29.99,West,269,9.2,9.2,82,0.00,SCT,,0.01,WeatherDisplay:10.37,2013-05-24 17:15:00,
2013-05-24 10:20:00,42.9,37.8,29.99,West,262,7.0,7.0,82,0.00,SCT,,0.01,WeatherDisplay:10.37,2013-05-24 17:20:00,
2013-05-24 10:25:00,43.3,38.5,29.99,WNW,287,7.0,7.0,83,0.00,SCT,,0.01,WeatherDisplay:10.37,2013-05-24 17:25:00,
2013-05-24 10:30:00,43.4,38.3,29.99,West,279,9.0,9.0,82,0.00,SCT,,0.01,WeatherDisplay:10.37,2013-05-24 17:30:00,
2013-05-24 10:35:00,43.8,39.0,29.99,West,281,3.5,3.5,83,0.00,SCT,,0.01,WeatherDisplay:10.37,2013-05-24 17:35:00,
2013-05-24 10:40:00,43.6,38.5,29.99,West,275,10.4,10.4,82,0.00,SCT,,0.01,WeatherDisplay:10.37,2013-05-24 17:40:00,
2013-05-24 10:45:00,43.6,38.8,29.99,West,279,11.5,11.5,83,0.00,SCT,,0.01,WeatherDisplay:10.37,2013-05-24 17:45:00,
2013-05-24 10:50:00,43.5,39.0,29.99,WNW,302,10.4,10.4,84,0.00,SCT,,0.01,WeatherDisplay:10.37,2013-05-24 17:50:00,
2013-05-24 10:55:00,43.3,37.9,30.00,West,280,11.5,11.5,81,0.00,SCT,,0.01,WeatherDisplay:10.37,2013-05-24 17:55:00,
2013-05-24 11:00:00,43.1,38.0,30.01,NW,323,9.2,9.2,82,0.00,SCT,,0.01,WeatherDisplay:10.37,2013-05-24 18:00:00,
2013-05-24 11:05:00,43.2,39.0,30.01,WNW,291,4.6,4.6,85,0.00,-RA,,0.01,WeatherDisplay:10.37,2013-05-24 18:05:00,
2013-05-24 11:10:00,43.0,38.5,30.01,West,277,6.9,6.9,84,0.00,-RA,,0.01,WeatherDisplay:10.37,2013-05-24 18:10:00,
2013-05-24 11:15:00,43.3,39.4,30.01,West,277,0.0,0.0,86,0.00,-RA,,0.01,WeatherDisplay:10.37,2013-05-24 18:15:00,
2013-05-24 11:20:00,43.5,39.3,30.01,West,277,4.6,4.6,85,0.00,-RA,,0.01,WeatherDisplay:10.37,2013-05-24 18:20:00,
2013-05-24 11:25:00,42.9,38.1,30.01,West,275,11.5,11.5,83,0.00,-RA,,0.01,WeatherDisplay:10.37,2013-05-24 18:25:00,
2013-05-24 11:30:00,42.9,38.7,30.01,WNW,283,5.8,5.8,85,0.00,-RA,,0.01,WeatherDisplay:10.37,2013-05-24 18:30:00,
2013-05-24 11:35:00,42.7,37.9,30.02,West,278,7.0,7.0,83,0.00,-RA,,0.01,WeatherDisplay:10.37,2013-05-24 18:35:00,
2013-05-24 11:40:00,42.3,37.8,30.03,West,275,10.4,10.4,84,0.00,-RA,,0.01,WeatherDisplay:10.37,2013-05-24 18:40:00,
2013-05-24 11:45:00,42.2,38.3,30.03,West,274,11.5,11.5,86,0.01,-RA,,0.02,WeatherDisplay:10.37,2013-05-24 18:45:00,
2013-05-24 11:50:00,42.1,38.2,30.03,WNW,285,12.7,12.7,86,0.01,-RA,,0.02,WeatherDisplay:10.37,2013-05-24 18:50:00,
2013-05-24 11:55:00,41.9,37.4,30.03,West,273,14.0,14.0,84,0.01,-RA,,0.02,WeatherDisplay:10.37,2013-05-24 18:55:00,
2013-05-24 12:00:00,42.0,37.2,30.02,West,267,11.5,11.5,83,0.01,-RA,,0.02,WeatherDisplay:10.37,2013-05-24 19:00:00,
2013-05-24 12:05:00,42.2,37.4,30.02,West,275,6.9,6.9,83,0.01,BKN,,0.02,WeatherDisplay:10.37,2013-05-24 19:05:00,
2013-05-24 12:10:00,42.6,38.1,30.02,WNW,286,2.3,2.3,84,0.01,BKN,,0.02,WeatherDisplay:10.37,2013-05-24 19:10:00,
2013-05-24 12:15:00,42.9,37.8,30.02,West,279,11.5,11.5,82,0.01,BKN,,0.02,WeatherDisplay:10.37,2013-05-24 19:15:00,
2013-05-24 12:20:00,42.9,37.8,30.02,West,273,10.4,10.4,82,0.01,BKN,,0.02,WeatherDisplay:10.37,2013-05-24 19:20:00,
2013-05-24 12:25:00,43.0,38.8,30.02,West,273,3.0,3.0,85,0.01,BKN,,0.02,WeatherDisplay:10.37,2013-05-24 19:25:00,
2013-05-24 12:30:00,43.0,38.8,30.02,NNE,17,3.5,3.5,85,0.01,BKN,,0.02,WeatherDisplay:10.37,2013-05-24 19:30:00,
2013-05-24 12:35:00,43.5,39.6,30.01,NNE,24,0.0,0.0,86,0.01,BKN,,0.02,WeatherDisplay:10.37,2013-05-24 19:35:00,
2013-05-24 12:40:00,44.2,39.1,30.01,NW,315,3.5,3.5,82,0.01,BKN,,0.02,WeatherDisplay:10.37,2013-05-24 19:40:00,
2013-05-24 12:46:00,44.5,39.0,30.01,NW,315,1.1,1.1,81,0.00,BKN,,0.02,WeatherDisplay:10.37,2013-05-24 19:46:00,
2013-05-24 12:51:00,45.2,39.7,30.00,NW,315,3.5,3.5,81,0.00,BKN,,0.02,WeatherDisplay:10.37,2013-05-24 19:51:00,
2013-05-24 12:56:00,45.7,38.2,30.00,NW,315,2.3,2.3,75,0.00,BKN,,0.02,WeatherDisplay:10.37,2013-05-24 19:56:00,
2013-05-24 13:01:00,46.4,39.2,30.01,NW,321,3.5,3.5,76,0.00,BKN,,0.02,WeatherDisplay:10.37,2013-05-24 20:01:00,
2013-05-24 13:06:00,46.4,39.6,30.01,ESE,123,3.5,3.5,77,0.00,CLR,,0.02,WeatherDisplay:10.37,2013-05-24 20:06:00,
2013-05-24 13:11:00,45.3,38.2,30.01,East,84,4.6,4.6,76,0.00,CLR,,0.02,WeatherDisplay:10.37,2013-05-24 20:11:00,
2013-05-24 13:16:00,45.3,38.2,30.02,ENE,76,0.0,0.2,76,0.00,CLR,,0.02,WeatherDisplay:10.37,2013-05-24 20:16:00,
2013-05-24 13:21:00,46.1,39.0,30.02,ENE,78,3.5,3.6,76,0.00,CLR,,0.02,WeatherDisplay:10.37,2013-05-24 20:21:00,
2013-05-24 13:26:00,45.6,37.4,30.02,ENE,65,4.6,4.6,73,0.00,CLR,,0.02,WeatherDisplay:10.37,2013-05-24 20:26:00,
2013-05-24 13:31:00,45.7,37.9,30.01,ENE,57,4.6,4.6,74,0.00,CLR,,0.02,WeatherDisplay:10.37,2013-05-24 20:31:00,
2013-05-24 13:36:00,46.3,38.5,30.02,NNE,15,3.5,3.5,74,0.00,CLR,,0.02,WeatherDisplay:10.37,2013-05-24 20:36:00,
2013-05-24 13:41:00,47.0,39.1,30.01,NNW,345,5.8,5.8,74,0.00,CLR,,0.02,WeatherDisplay:10.37,2013-05-24 20:41:00,
2013-05-24 13:46:00,47.3,38.7,30.01,ENE,72,3.5,3.5,72,0.00,CLR,,0.02,WeatherDisplay:10.37,2013-05-24 20:46:00,
2013-05-24 13:51:00,46.9,38.3,30.01,ENE,72,2.0,2.0,72,0.00,CLR,,0.02,WeatherDisplay:10.37,2013-05-24 20:51:00,
2013-05-24 13:56:00,46.9,38.7,30.01,ENE,72,0.0,0.0,73,0.00,CLR,,0.02,WeatherDisplay:10.37,2013-05-24 20:56:00,
2013-05-24 14:01:00,46.9,38.3,30.03,NNE,24,5.8,5.8,72,0.00,OVC,,0.02,WeatherDisplay:10.37,2013-05-24 21:01:00,
2013-05-24 14:06:00,47.1,38.9,30.03,NNW,335,5.8,5.8,73,0.00,OVC,,0.02,WeatherDisplay:10.37,2013-05-24 21:06:00,
2013-05-24 14:11:00,47.4,39.5,30.03,NNW,348,3.5,3.5,74,0.00,OVC,,0.02,WeatherDisplay:10.37,2013-05-24 21:11:00,
2013-05-24 14:16:00,47.3,39.8,30.03,North,11,6.9,6.9,75,0.00,OVC,,0.02,WeatherDisplay:10.37,2013-05-24 21:16:00,
2013-05-24 14:21:00,46.2,36.6,30.05,West,277,11.5,11.5,69,0.00,OVC,,0.02,WeatherDisplay:10.37,2013-05-24 21:21:00,
2013-05-24 14:26:00,44.8,38.0,30.05,West,275,5.0,5.0,77,0.01,RA,,0.03,WeatherDisplay:10.37,2013-05-24 21:26:00,
2013-05-24 14:31:00,44.1,37.7,30.07,SW,227,14.0,14.0,78,0.01,RA,,0.03,WeatherDisplay:10.37,2013-05-24 21:31:00,
2013-05-24 14:36:00,42.2,36.2,30.08,SW,216,21.9,21.9,79,0.01,OVC,,0.03,WeatherDisplay:10.37,2013-05-24 21:36:00,
2013-05-24 14:41:00,40.5,36.3,30.08,South,186,19.6,19.6,85,0.02,RA,,0.04,WeatherDisplay:10.37,2013-05-24 21:41:00,
2013-05-24 14:46:00,39.6,36.0,30.09,South,187,13.8,13.8,87,0.02,RA,,0.04,WeatherDisplay:10.37,2013-05-24 21:46:00,
2013-05-24 14:51:00,39.2,35.9,30.09,SSW,198,11.5,11.5,88,0.02,OVC,,0.04,WeatherDisplay:10.37,2013-05-24 21:51:00,
2013-05-24 14:56:00,39.5,36.8,30.09,SW,216,9.2,9.2,90,0.02,OVC,,0.04,WeatherDisplay:10.37,2013-05-24 21:56:00,
2013-05-24 15:01:00,40.0,37.0,30.08,WSW,238,4.0,4.0,89,0.03,RA,,0.05,WeatherDisplay:10.37,2013-05-24 22:01:00,
2013-05-24 15:06:00,40.4,37.7,30.08,WSW,252,3.5,3.5,90,0.03,RA,,0.05,WeatherDisplay:10.37,2013-05-24 22:06:00,
2013-05-24 15:11:00,41.1,38.4,30.08,WSW,252,2.3,2.3,90,0.04,RA,,0.06,WeatherDisplay:10.37,2013-05-24 22:11:00,
2013-05-24 15:16:00,42.3,39.9,30.07,WNW,303,0.0,0.0,91,0.04,RA,,0.06,WeatherDisplay:10.37,2013-05-24 22:16:00,
2013-05-24 15:21:00,43.5,41.3,30.06,NW,311,4.6,4.6,92,0.04,OVC,,0.06,WeatherDisplay:10.37,2013-05-24 22:21:00,
2013-05-24 15:26:00,44.5,42.0,30.06,NW,309,4.0,4.0,91,0.04,RA,,0.07,WeatherDisplay:10.37,2013-05-24 22:26:00,
2013-05-24 15:31:00,44.9,42.1,30.07,NNW,338,2.3,2.3,90,0.04,RA,,0.07,WeatherDisplay:10.37,2013-05-24 22:31:00,
2013-05-24 15:36:00,45.0,42.0,30.07,NW,325,3.5,3.5,89,0.05,RA,,0.08,WeatherDisplay:10.37,2013-05-24 22:36:00,
2013-05-24 15:41:00,44.0,40.1,30.07,West,273,11.5,11.5,86,0.04,RA,,0.08,WeatherDisplay:10.37,2013-05-24 22:41:00,
2013-05-24 15:46:00,43.4,40.1,30.08,NW,309,3.5,3.5,88,0.04,OVC,,0.08,WeatherDisplay:10.37,2013-05-24 22:46:00,
2013-05-24 15:51:00,43.4,40.4,30.08,NW,325,3.5,3.5,89,0.04,OVC,,0.08,WeatherDisplay:10.37,2013-05-24 22:51:00,
2013-05-24 15:56:00,43.6,40.6,30.06,NNW,329,3.5,3.5,89,0.05,RA,,0.09,WeatherDisplay:10.37,2013-05-24 22:56:00,
2013-05-24 16:01:00,43.8,40.8,30.07,NW,314,3.5,3.5,89,0.04,RA,,0.09,WeatherDisplay:10.37,2013-05-24 23:01:00,
2013-05-24 16:06:00,44.2,41.2,30.07,NW,314,1.0,0.0,89,0.04,BKN,,0.09,WeatherDisplay:10.37,2013-05-24 23:06:00,
2013-05-24 16:11:00,45.0,42.0,30.06,NW,323,3.5,3.5,89,0.03,BKN,,0.09,WeatherDisplay:10.37,2013-05-24 23:11:00,
2013-05-24 16:16:00,45.2,40.7,30.05,WSW,249,3.5,3.5,84,0.03,BKN,,0.09,WeatherDisplay:10.37,2013-05-24 23:16:00,
2013-05-24 16:21:00,44.9,39.4,30.05,SSE,149,6.9,6.9,81,0.03,BKN,,0.09,WeatherDisplay:10.37,2013-05-24 23:21:00,
2013-05-24 16:26:00,44.9,40.0,30.05,South,181,5.8,5.8,83,0.02,BKN,,0.09,WeatherDisplay:10.37,2013-05-24 23:26:00,
2013-05-24 16:31:00,44.9,39.4,30.06,South,182,3.5,3.5,81,0.02,BKN,,0.09,WeatherDisplay:10.37,2013-05-24 23:31:00,
2013-05-24 16:36:00,45.3,38.8,30.06,SSW,207,3.5,3.5,78,0.01,BKN,,0.09,WeatherDisplay:10.37,2013-05-24 23:36:00,
2013-05-24 16:41:00,45.5,39.4,30.06,SW,229,3.5,3.5,79,0.01,BKN,,0.09,WeatherDisplay:10.37,2013-05-24 23:41:00,
2013-05-24 16:46:00,45.2,38.1,30.06,SSW,192,3.5,3.5,76,0.01,BKN,,0.09,WeatherDisplay:10.37,2013-05-24 23:46:00,
2013-05-24 16:51:00,45.8,40.0,30.06,SSW,192,1.1,0.0,80,0.01,BKN,,0.09,WeatherDisplay:10.37,2013-05-24 23:51:00,
2013-05-24 16:56:00,46.7,39.9,30.05,SSW,194,3.5,3.5,77,0.00,BKN,,0.09,WeatherDisplay:10.37,2013-05-24 23:56:00,
2013-05-24 17:01:00,46.6,38.8,30.05,SSW,200,9.2,9.2,74,0.00,SCT,,0.09,WeatherDisplay:10.37,2013-05-25 00:01:00,
2013-05-24 17:06:00,47.1,41.9,30.05,SSW,200,1.0,1.2,82,0.00,SCT,,0.09,WeatherDisplay:10.37,2013-05-25 00:06:00,
2013-05-24 17:11:00,47.8,41.6,30.05,SSW,200,0.0,0.0,79,0.00,SCT,,0.09,WeatherDisplay:10.37,2013-05-25 00:11:00,
2013-05-24 17:16:00,47.7,39.1,30.05,West,271,0.0,0.3,72,0.00,SCT,,0.09,WeatherDisplay:10.37,2013-05-25 00:16:00,
2013-05-24 17:21:00,48.0,39.4,30.05,West,273,4.0,4.0,72,0.00,SCT,,0.09,WeatherDisplay:10.37,2013-05-25 00:21:00,
2013-05-24 17:26:00,47.5,38.9,30.05,SW,226,5.0,5.0,72,0.00,SCT,,0.09,WeatherDisplay:10.37,2013-05-25 00:26:00,
2013-05-24 17:31:00,46.8,38.2,30.05,SSW,202,1.0,1.0,72,0.00,SCT,,0.09,WeatherDisplay:10.37,2013-05-25 00:31:00,
2013-05-24 17:36:00,46.7,38.5,30.05,West,264,4.0,4.0,73,0.00,SCT,,0.09,WeatherDisplay:10.37,2013-05-25 00:36:00,
2013-05-24 17:41:00,46.8,39.3,30.05,West,264,1.1,0.0,75,0.00,SCT,,0.09,WeatherDisplay:10.37,2013-05-25 00:41:00,
2013-05-24 17:46:00,47.1,40.3,30.05,West,264,3.5,3.5,77,0.00,SCT,,0.09,WeatherDisplay:10.37,2013-05-25 00:46:00,
2013-05-24 17:51:00,47.3,40.5,30.05,NW,319,3.5,3.5,77,0.00,SCT,,0.09,WeatherDisplay:10.37,2013-05-25 00:51:00,
2013-05-24 17:56:00,47.4,40.2,30.05,NNW,331,4.6,4.6,76,0.00,SCT,,0.09,WeatherDisplay:10.37,2013-05-25 00:56:00,
2013-05-24 18:01:00,47.7,41.5,30.02,North,360,1.1,1.1,79,0.00,CLR,,0.09,WeatherDisplay:10.37,2013-05-25 01:01:00,
2013-05-24 18:06:00,48.5,42.0,30.02,North,360,2.3,2.3,78,0.00,CLR,,0.09,WeatherDisplay:10.37,2013-05-25 01:06:00,
2013-05-24 18:11:00,49.3,41.7,30.02,North,360,3.5,3.5,75,0.00,CLR,,0.09,WeatherDisplay:10.37,2013-05-25 01:11:00,
2013-05-24 18:17:00,49.1,40.5,30.02,NNE,28,4.0,4.0,72,0.00,CLR,,0.09,WeatherDisplay:10.37,2013-05-25 01:17:00,
2013-05-24 18:22:00,48.1,40.2,30.03,NNE,24,5.0,5.0,74,0.00,CLR,,0.09,WeatherDisplay:10.37,2013-05-25 01:22:00,
2013-05-24 18:27:00,47.8,39.9,30.03,NNE,15,4.6,4.6,74,0.00,CLR,,0.09,WeatherDisplay:10.37,2013-05-25 01:27:00,
2013-05-24 18:32:00,47.4,39.5,30.04,NNE,15,3.5,3.5,74,0.00,CLR,,0.09,WeatherDisplay:10.37,2013-05-25 01:32:00,
2013-05-24 18:37:00,47.1,38.9,30.04,NNE,15,1.1,1.1,73,0.00,CLR,,0.09,WeatherDisplay:10.37,2013-05-25 01:37:00,
2013-05-24 18:42:00,46.7,40.5,30.04,ENE,61,4.6,4.6,79,0.00,CLR,,0.09,WeatherDisplay:10.37,2013-05-25 01:42:00,
2013-05-24 18:47:00,46.1,40.9,30.04,ENE,59,6.9,6.9,82,0.00,CLR,,0.09,WeatherDisplay:10.37,2013-05-25 01:47:00,
2013-05-24 18:52:00,45.3,41.1,30.05,ENE,74,8.0,8.0,85,0.00,CLR,,0.09,WeatherDisplay:10.37,2013-05-25 01:52:00,
2013-05-24 18:57:00,45.0,41.1,30.05,ENE,75,5.8,6.2,86,0.00,CLR,,0.09,WeatherDisplay:10.37,2013-05-25 01:57:00,
2013-05-24 19:02:00,45.0,41.1,30.03,ENE,76,4.0,4.0,86,0.00,SCT,,0.09,WeatherDisplay:10.37,2013-05-25 02:02:00,
2013-05-24 19:07:00,45.0,41.1,30.03,ENE,75,4.6,4.6,86,0.00,SCT,,0.09,WeatherDisplay:10.37,2013-05-25 02:07:00,
2013-05-24 19:12:00,44.9,41.0,30.03,ENE,76,3.5,3.5,86,0.00,SCT,,0.09,WeatherDisplay:10.37,2013-05-25 02:12:00,
2013-05-24 19:17:00,44.7,41.1,30.03,ENE,76,4.0,4.0,87,0.00,SCT,,0.09,WeatherDisplay:10.37,2013-05-25 02:17:00,
2013-05-24 19:22:00,44.5,40.9,30.04,ENE,76,3.5,3.5,87,0.00,SCT,,0.09,WeatherDisplay:10.37,2013-05-25 02:22:00,
2013-05-24 19:27:00,44.4,40.8,30.05,ENE,75,4.0,4.0,87,0.00,SCT,,0.09,WeatherDisplay:10.37,2013-05-25 02:27:00,
2013-05-24 19:32:00,44.5,40.9,30.05,ENE,76,3.5,3.5,87,0.00,SCT,,0.09,WeatherDisplay:10.37,2013-05-25 02:32:00,
2013-05-24 19:37:00,44.7,41.4,30.04,ESE,102,4.6,4.8,88,0.00,SCT,,0.09,WeatherDisplay:10.37,2013-05-25 02:37:00,
2013-05-24 19:42:00,44.7,40.8,30.03,East,101,5.8,5.8,86,0.00,SCT,,0.09,WeatherDisplay:10.37,2013-05-25 02:42:00,
2013-05-24 19:47:00,44.5,40.6,30.03,ESE,115,5.8,5.8,86,0.00,SCT,,0.09,WeatherDisplay:10.37,2013-05-25 02:47:00,
2013-05-24 19:52:00,44.0,40.4,30.05,SE,134,6.9,6.9,87,0.00,SCT,,0.09,WeatherDisplay:10.37,2013-05-25 02:52:00,
2013-05-24 19:57:00,43.6,40.0,30.05,SE,142,10.4,10.4,87,0.00,SCT,,0.09,WeatherDisplay:10.37,2013-05-25 02:57:00,
2013-05-24 20:02:00,43.3,39.7,30.06,SSE,148,9.2,9.2,87,0.00,SCT,,0.09,WeatherDisplay:10.37,2013-05-25 03:02:00,
2013-05-24 20:07:00,42.9,39.3,30.06,SE,131,9.2,9.2,87,0.00,SCT,,0.09,WeatherDisplay:10.37,2013-05-25 03:07:00,
2013-05-24 20:12:00,42.5,38.9,30.07,SE,130,7.0,7.0,87,0.00,SCT,,0.09,WeatherDisplay:10.37,2013-05-25 03:12:00,
2013-05-24 20:17:00,42.2,38.6,30.07,SE,133,9.2,9.2,87,0.00,SCT,,0.09,WeatherDisplay:10.37,2013-05-25 03:17:00,
2013-05-24 20:22:00,41.9,38.6,30.07,ESE,122,6.9,6.9,88,0.00,SCT,,0.09,WeatherDisplay:10.37,2013-05-25 03:22:00,
2013-05-24 20:27:00,41.8,38.5,30.07,SE,126,4.6,4.6,88,0.00,SCT,,0.09,WeatherDisplay:10.37,2013-05-25 03:27:00,
2013-05-24 20:32:00,41.5,38.5,30.07,SE,126,5.8,5.8,89,0.00,SCT,,0.09,WeatherDisplay:10.37,2013-05-25 03:32:00,
2013-05-24 20:37:00,41.2,38.2,30.08,SE,126,4.6,4.6,89,0.00,SCT,,0.09,WeatherDisplay:10.37,2013-05-25 03:37:00,
2013-05-24 20:42:00,40.8,38.1,30.08,SE,126,4.6,4.6,90,0.00,SCT,,0.09,WeatherDisplay:10.37,2013-05-25 03:42:00,
2013-05-24 20:47:00,40.7,38.0,30.08,ESE,121,5.8,5.8,90,0.00,SCT,,0.09,WeatherDisplay:10.37,2013-05-25 03:47:00,
2013-05-24 20:52:00,40.6,37.9,30.08,ESE,122,3.5,3.5,90,0.00,SCT,,0.09,WeatherDisplay:10.37,2013-05-25 03:52:00,
2013-05-24 20:57:00,40.6,38.2,30.08,SE,144,5.8,5.8,91,0.00,SCT,,0.09,WeatherDisplay:10.37,2013-05-25 03:57:00,
2013-05-24 21:01:00,40.5,38.1,30.07,SE,140,7.0,7.0,91,0.00,SCT,,0.09,WeatherDisplay:10.37,2013-05-25 04:01:00,
2013-05-24 21:06:00,40.4,38.0,30.08,SE,142,9.2,9.2,91,0.00,BKN,,0.09,WeatherDisplay:10.37,2013-05-25 04:06:00,
2013-05-24 21:11:00,40.5,38.1,30.07,SSE,150,9.2,9.2,91,0.00,BKN,,0.09,WeatherDisplay:10.37,2013-05-25 04:11:00,
2013-05-24 21:16:00,40.6,38.2,30.08,SSE,159,9.0,9.0,91,0.00,BKN,,0.09,WeatherDisplay:10.37,2013-05-25 04:16:00,
2013-05-24 21:21:00,40.9,38.5,30.08,South,170,8.1,8.1,91,0.00,BKN,,0.09,WeatherDisplay:10.37,2013-05-25 04:21:00,
2013-05-24 21:26:00,40.7,38.0,30.08,South,178,6.9,6.9,90,0.00,BKN,,0.09,WeatherDisplay:10.37,2013-05-25 04:26:00,
2013-05-24 21:31:00,40.5,37.8,30.08,South,179,9.2,9.2,90,0.00,BKN,,0.09,WeatherDisplay:10.37,2013-05-25 04:31:00,
2013-05-24 21:36:00,40.5,38.1,30.08,South,171,6.0,6.0,91,0.00,BKN,,0.09,WeatherDisplay:10.37,2013-05-25 04:36:00,
2013-05-24 21:41:00,40.4,38.0,30.08,SSE,150,9.2,9.2,91,0.00,BKN,,0.09,WeatherDisplay:10.37,2013-05-25 04:41:00,
2013-05-24 21:46:00,40.2,37.8,30.08,SSE,161,6.9,6.9,91,0.00,BKN,,0.09,WeatherDisplay:10.37,2013-05-25 04:46:00,
2013-05-24 21:51:00,40.1,37.7,30.08,SSE,161,4.6,4.6,91,0.00,BKN,,0.09,WeatherDisplay:10.37,2013-05-25 04:51:00,
2013-05-24 21:56:00,39.7,37.3,30.08,SSE,160,4.6,4.6,91,0.00,BKN,,0.09,WeatherDisplay:10.37,2013-05-25 04:56:00,
2013-05-24 22:01:00,39.5,37.1,30.07,SSE,161,4.0,4.0,91,0.00,CLR,,0.09,WeatherDisplay:10.37,2013-05-25 05:01:00,
2013-05-24 22:06:00,39.2,36.8,30.07,SSE,161,4.6,4.6,91,0.00,CLR,,0.09,WeatherDisplay:10.37,2013-05-25 05:06:00,
2013-05-24 22:11:00,39.1,36.7,30.07,SSE,161,5.8,5.8,91,0.00,CLR,,0.09,WeatherDisplay:10.37,2013-05-25 05:11:00,
2013-05-24 22:16:00,39.2,37.1,30.07,SSE,161,6.0,6.0,92,0.00,CLR,,0.09,WeatherDisplay:10.37,2013-05-25 05:16:00,
2013-05-24 22:21:00,39.3,36.9,30.06,SSE,157,6.0,6.1,91,0.00,CLR,,0.09,WeatherDisplay:10.37,2013-05-25 05:21:00,
2013-05-24 22:26:00,38.9,36.5,30.06,SSE,161,9.2,9.2,91,0.00,CLR,,0.09,WeatherDisplay:10.37,2013-05-25 05:26:00,
2013-05-24 22:31:00,38.3,35.9,30.07,South,169,6.0,6.0,91,0.00,CLR,,0.09,WeatherDisplay:10.37,2013-05-25 05:31:00,
2013-05-24 22:36:00,38.4,36.3,30.07,South,176,6.9,6.9,92,0.00,CLR,,0.09,WeatherDisplay:10.37,2013-05-25 05:36:00,
2013-05-24 22:41:00,38.5,36.4,30.07,South,188,9.0,9.0,92,0.00,CLR,,0.09,WeatherDisplay:10.37,2013-05-25 05:41:00,
2013-05-24 22:46:00,38.8,36.7,30.06,South,188,8.1,8.1,92,0.00,CLR,,0.09,WeatherDisplay:10.37,2013-05-25 05:46:00,
2013-05-24 22:51:00,39.0,36.9,30.05,South,182,8.1,8.1,92,0.00,CLR,,0.09,WeatherDisplay:10.37,2013-05-25 05:51:00,
2013-05-24 22:56:00,38.9,36.8,30.05,South,182,7.0,7.0,92,0.00,CLR,,0.09,WeatherDisplay:10.37,2013-05-25 05:56:00,
2013-05-24 23:01:00,38.7,36.6,30.06,South,182,7.0,7.0,92,0.00,CLR,,0.09,WeatherDisplay:10.37,2013-05-25 06:01:00,
2013-05-24 23:06:00,38.9,36.8,30.06,South,188,6.9,6.9,92,0.00,CLR,,0.09,WeatherDisplay:10.37,2013-05-25 06:06:00,
2013-05-24 23:11:00,38.8,36.4,30.06,South,188,6.0,6.0,91,0.00,CLR,,0.09,WeatherDisplay:10.37,2013-05-25 06:11:00,
2013-05-24 23:16:00,38.3,35.9,30.06,SSW,207,3.5,3.5,91,0.00,CLR,,0.09,WeatherDisplay:10.37,2013-05-25 06:16:00,
2013-05-24 23:22:00,38.1,35.7,30.06,SSW,207,3.5,3.5,91,0.00,CLR,,0.09,WeatherDisplay:10.37,2013-05-25 06:22:00,
2013-05-24 23:27:00,38.2,36.1,30.06,SSW,207,4.0,4.0,92,0.00,CLR,,0.09,WeatherDisplay:10.37,2013-05-25 06:27:00,
2013-05-24 23:32:00,38.2,36.1,30.06,SSW,207,4.6,4.6,92,0.00,CLR,,0.09,WeatherDisplay:10.37,2013-05-25 06:32:00,
2013-05-24 23:37:00,37.9,35.5,30.06,SSW,207,3.5,3.5,91,0.00,CLR,,0.09,WeatherDisplay:10.37,2013-05-25 06:37:00,
2013-05-24 23:42:00,37.9,35.5,30.06,SSW,207,3.5,3.5,91,0.00,CLR,,0.09,WeatherDisplay:10.37,2013-05-25 06:42:00,
2013-05-24 23:47:00,37.8,35.4,30.06,SSW,206,4.0,4.0,91,0.00,CLR,,0.09,WeatherDisplay:10.37,2013-05-25 06:47:00,
2013-05-24 23:52:00,37.3,34.9,30.07,SSW,206,5.0,5.0,91,0.00,CLR,,0.09,WeatherDisplay:10.37,2013-05-25 06:52:00,
2013-05-24 23:57:00,37.1,34.7,30.07,SSW,206,4.6,4.6,91,0.00,CLR,,0.09,WeatherDisplay:10.37,2013-05-25 06:57:00,